Home > Weather > Bangui > Past weeks

Flag for Central African Republic Past Weather in Bangui, Central African Republic — Yesterday and Last 2 Weeks

Now
86 °F

Partly sunny.


Feels Like: 92 °F
Forecast: 70 / 90 °F
Wind: 6 mph from South

Location: Bangui Airport

Current Time: Aug 27, 2016 at 1:05:22 PM

Latest Report: Aug 27, 2016 at 12:00 PM


Visibility: N/A

Pressure: 29.92 "Hg

Humidity: 62%

Dew Point: 72 °F

Location of BanguiLocation

Past Weather in Bangui — Graph

°F

Bangui Temperature Yesterday

Maximum temperature yesterday: 84 °F (at 3:00 PM)
Minimum temperature yesterday: 70 °F (at 1:00 AM)
Average temperature yesterday: 75 °F

High & Low Weather Summary for the Past Weeks

 TemperatureHumidityPressure
High93 °F (Aug 17, 1:00 PM)100% (Aug 12, 9:00 PM)30.04 "Hg (Aug 12, 9:00 PM)
Low68 °F (Aug 16, 2:00 AM)47% (Aug 22, 4:00 PM)29.74 "Hg (Aug 24, 4:00 PM)
Average77 °F86%29.90 "Hg
* Reported Aug 12 11:00 AM — Aug 27 11:00 AM, Bangui, Weather by CustomWeather, © 2016

Note: Actual official high and low records may vary slightly from our data, if they occured in-between our weather recording intervals... More about our weather records

Advertising

Bangui Weather History for the Previous 24 Hours

Scroll right to see more
 ConditionsComfort  
Time TempWeatherWind HumidityBarometerVisibility
11:00 AM
Sat, Aug 27
88 °FPartly sunny.5 mph59%29.95 "HgN/A
10:00 AM86 °FScattered clouds.2 mph66%29.98 "HgN/A
9:00 AM81 °FPassing clouds.2 mph79%29.98 "HgN/A
8:00 AM75 °FSunny.2 mph94%29.98 "Hg10 mi
7:00 AM72 °FPassing clouds.2 mph100%29.95 "Hg5 mi
6:00 AM73 °FPassing clouds.No wind100%29.95 "Hg5 mi
5:00 AM72 °FPassing clouds.No wind100%29.92 "Hg5 mi
4:00 AM72 °FPassing clouds.No wind100%29.92 "Hg5 mi
3:00 AM73 °FPassing clouds.No wind94%29.92 "Hg5 mi
2:00 AM72 °FClear.1 mph100%29.92 "Hg5 mi
1:00 AM73 °FClear.2 mph100%29.92 "Hg4 mi
11:00 PM
Fri, Aug 26
75 °FClear.No wind94%29.95 "Hg4 mi
10:00 PM73 °FClear.No wind100%29.95 "Hg4 mi
9:00 PM73 °FPassing clouds.No wind100%29.92 "Hg4 mi
8:00 PM75 °FPassing clouds.2 mph94%29.89 "Hg5 mi
7:00 PM77 °FPassing clouds.No wind89%29.89 "Hg5 mi
6:00 PM79 °FPassing clouds.2 mph79%29.86 "HgN/A
5:00 PM82 °FScattered clouds.5 mph70%29.83 "HgN/A
4:00 PM82 °FScattered clouds.5 mph70%29.83 "HgN/A
3:00 PM84 °FPartly sunny.7 mph62%29.86 "HgN/A
2:00 PM82 °FPartly sunny.7 mph66%29.89 "HgN/A
Weather by CustomWeather, © 2016

See weather overviewHow to use our weather pages